TimeCST,TemperatureF,Dew PointF,Humidity,Sea Level PressureIn,VisibilityMPH,Wind Direction,Wind SpeedMPH,Gust SpeedMPH,PrecipitationIn,Events,Conditions,WindDirDegrees,DateUTC
12:53 AM,28.0,21.0,75,30.02,10.0,South,8.1,-,N/A,,Mostly Cloudy,190,2012-11-25 06:53:00
1:53 AM,28.0,21.0,75,30.00,10.0,South,10.4,-,N/A,,Overcast,190,2012-11-25 07:53:00
2:53 AM,28.0,21.9,78,29.95,10.0,South,10.4,-,N/A,,Overcast,180,2012-11-25 08:53:00
3:53 AM,28.9,21.9,75,29.92,10.0,South,8.1,-,N/A,,Overcast,180,2012-11-25 09:53:00
4:53 AM,30.0,21.9,72,29.92,10.0,SSW,9.2,-,N/A,,Overcast,200,2012-11-25 10:53:00
5:53 AM,28.9,23.0,78,29.91,10.0,SSW,6.9,-,N/A,,Clear,200,2012-11-25 11:53:00
6:53 AM,28.0,21.9,78,29.90,10.0,SSW,4.6,-,N/A,,Clear,210,2012-11-25 12:53:00
7:53 AM,28.0,23.0,81,29.91,10.0,SSW,4.6,-,N/A,,Clear,210,2012-11-25 13:53:00
8:53 AM,33.1,24.1,70,29.91,10.0,SW,12.7,-,N/A,,Clear,230,2012-11-25 14:53:00
9:53 AM,37.0,24.1,59,29.91,10.0,West,9.2,-,N/A,,Clear,270,2012-11-25 15:53:00
10:53 AM,39.9,24.1,53,29.90,10.0,WNW,10.4,-,N/A,,Clear,300,2012-11-25 16:53:00
11:53 AM,41.0,23.0,49,29.90,10.0,Variable,4.6,-,N/A,,Clear,0,2012-11-25 17:53:00
12:53 PM,42.1,24.1,49,29.89,10.0,West,4.6,-,N/A,,Clear,270,2012-11-25 18:53:00
1:53 PM,44.1,24.1,45,29.90,10.0,West,8.1,-,N/A,,Clear,260,2012-11-25 19:53:00
2:53 PM,44.1,24.1,45,29.91,10.0,WNW,6.9,-,N/A,,Clear,290,2012-11-25 20:53:00
3:53 PM,39.9,24.1,53,29.93,10.0,West,6.9,-,N/A,,Clear,280,2012-11-25 21:53:00
4:53 PM,37.9,25.0,60,29.95,10.0,Calm,Calm,-,N/A,,Clear,0,2012-11-25 22:53:00
5:53 PM,34.0,24.1,67,29.98,10.0,Calm,Calm,-,N/A,,Clear,0,2012-11-25 23:53:00
6:53 PM,32.0,24.1,73,29.99,10.0,Calm,Calm,-,N/A,,Clear,0,2012-11-26 00:53:00
7:53 PM,30.9,25.0,79,30.02,10.0,SW,3.5,-,N/A,,Clear,220,2012-11-26 01:53:00
8:53 PM,34.0,26.1,73,30.03,10.0,WNW,3.5,-,N/A,,Mostly Cloudy,290,2012-11-26 02:53:00
9:53 PM,35.1,26.1,70,30.04,10.0,West,4.6,-,N/A,,Partly Cloudy,260,2012-11-26 03:53:00
10:53 PM,37.0,26.1,65,30.05,10.0,Calm,Calm,-,N/A,,Overcast,0,2012-11-26 04:53:00
11:53 PM,36.0,26.1,67,30.07,10.0,WNW,3.5,-,N/A,,Mostly Cloudy,300,2012-11-26 05:53:00